WH7F Weather Reports


time (UTC)temp
C
wind
direction
speed
KPH
gust
KPH
rain 1hr
cm
rain 24hr
cm
rain mn
cm
humidity
%
barometer
mb
20260504081518 9 0.0 1.6 0.00 0.00 0.00 52 1016.1
20260504080525 9 0.0 0.0 0.00 0.00 0.00 52 1016.0
20260504050516 7 192 0.0 1.6 0.00 0.00 0.00 49 1016.2
20260504045540 7 189 1.6 3.2 0.00 0.00 0.00 48 1016.2
20260504044525 7 202 0.0 3.2 0.00 0.00 0.00 48 1016.3
20260504043520 7 212 0.0 1.6 0.00 0.00 0.00 47 1016.3
20260504042525 7 199 1.6 1.6 0.00 0.00 0.00 47 1016.2
20260504041524 7 206 1.6 3.2 0.00 0.00 0.00 46 1016.3
20260504040517 7 197 1.6 3.2 0.00 0.00 0.00 45 1016.3
20260504035522 7 214 1.6 1.6 0.00 0.00 0.00 44 1016.2
20260504034537 7 219 1.6 3.2 0.00 0.00 0.00 44 1016.1
20260504033521 7 195 1.6 3.2 0.00 0.00 0.00 43 1016.0
20260504032529 7 203 1.6 3.2 0.00 0.00 0.00 42 1015.9
20260504031518 7 242 1.6 3.2 0.00 0.00 0.00 41 1015.9
20260504030518 7 243 1.6 3.2 0.00 0.00 0.00 40 1015.7
20260504025544 7 238 1.6 3.2 0.00 0.00 0.00 40 1015.7
20260504024519 7 245 0.0 1.6 0.00 0.00 0.00 39 1015.8
20260504023524 7 0.0 0.0 0.00 0.00 0.00 39 1015.6
20260504022530 7 0.0 0.0 0.00 0.00 0.00 38 1015.6
20260504021515 7 0.0 0.0 0.00 0.00 0.00 36 1015.6
20260504020543 8 0.0 0.0 0.00 0.00 0.00 34 1015.6
20260504015521 8 0.0 0.0 0.00 0.00 0.00 34 1015.6
20260504014523 8 0.0 0.0 0.00 0.00 0.00 33 1015.4
20260504013517 8 0.0 0.0 0.00 0.00 0.00 32 1015.4
20260504012519 9 220 0.0 0.0 0.00 0.00 0.00 31 1015.4
20260504011519 9 225 0.0 1.6 0.00 0.00 0.00 31 1015.3
20260504010525 10 0.0 0.0 0.00 0.00 0.00 30 1015.2
20260504005520 10 0.0 0.0 0.00 0.00 0.00 31 1015.1
20260504004525 11 0.0 0.0 0.00 0.00 0.00 30 1015.1
20260504003604 11 248 0.0 0.0 0.00 0.00 0.00 29 1015.0
20260504002516 12 248 0.0 1.6 0.00 0.00 0.00 28 1014.9
20260504001522 12 0.0 0.0 0.00 0.00 0.00 27 1014.8
20260504000517 13 251 0.0 0.0 0.00 0.00 0.00 25 1014.7
20260503235541 13 265 0.0 1.6 0.00 0.00 0.00 25 1014.7
20260503234529 14 242 0.0 3.2 0.00 0.00 0.00 24 1014.5
20260503233517 15 223 0.0 0.0 0.00 0.00 0.00 23 1014.4
20260503232516 15 256 0.0 4.8 0.00 0.00 0.00 22 1014.4
20260503231523 15 311 1.6 1.6 0.00 0.00 0.00 22 1014.3
20260503230516 16 279 1.6 4.8 0.00 0.00 0.00 21 1014.3
20260503225524 16 38 1.6 6.4 0.00 0.00 0.00 21 1014.3
20260503224532 17 268 1.6 4.8 0.00 0.00 0.00 21 1014.4
20260503223515 17 335 1.6 6.4 0.00 0.00 0.00 20 1014.4
20260503222543 18 238 1.6 9.7 0.00 0.00 0.00 19 1014.3
20260503221517 19 335 1.6 11.3 0.00 0.00 0.00 18 1014.5
20260503220516 21 15 3.2 4.8 0.00 0.00 0.00 16 1014.5
20260503215524 25 275 1.6 8.0 0.00 0.00 0.00 16 1014.6
20260503214517 27 48 1.6 6.4 0.00 0.00 0.00 16 1014.4
20260503213519 27 262 3.2 11.3 0.00 0.00 0.00 17 1014.4
20260503212517 27 339 4.8 9.7 0.00 0.00 0.00 15 1014.5
20260503211519 27 1 3.2 11.3 0.00 0.00 0.00 17 1014.5
20260503210516 27 2 3.2 9.7 0.00 0.00 0.00 17 1014.4
20260503205525 27 234 3.2 8.0 0.00 0.00 0.00 19 1014.5
20260503204516 27 324 4.8 27.4 0.00 0.00 0.00 18 1014.6
20260503203523 26 184 3.2 8.0 0.00 0.00 0.00 20 1014.7
20260503202536 25 9 4.8 9.7 0.00 0.00 0.00 20 1014.8
20260503201524 25 332 4.8 9.7 0.00 0.00 0.00 20 1014.9
20260503200516 25 352 6.4 8.0 0.00 0.00 0.00 20 1015.0
20260503195519 24 219 4.8 12.9 0.00 0.00 0.00 21 1015.1
20260503194516 23 10 3.2 12.9 0.00 0.00 0.00 22 1015.2
20260503193525 22 339 3.2 8.0 0.00 0.00 0.00 22 1015.3
20260503192517 21 312 3.2 11.3 0.00 0.00 0.00 21 1015.4
20260503191521 22 311 3.2 8.0 0.00 0.00 0.00 21 1015.5
20260503190516 23 291 3.2 9.7 0.00 0.00 0.00 21 1015.6
20260503185536 25 331 4.8 11.3 0.00 0.00 0.00 20 1015.7
20260503184516 26 320 4.8 14.5 0.00 0.00 0.00 19 1015.9
20260503183518 26 265 4.8 16.1 0.00 0.00 0.00 21 1016.1
20260503182516 26 303 3.2 9.7 0.00 0.00 0.00 20 1016.1
20260503181525 25 29 4.8 6.4 0.00 0.00 0.00 21 1016.0
20260503180517 25 309 4.8 9.7 0.00 0.00 0.00 20 1016.2
20260503175519 24 303 4.8 11.3 0.00 0.00 0.00 21 1016.3
20260503174517 24 304 4.8 12.9 0.00 0.00 0.00 22 1016.3
20260503173519 24 33 4.8 11.3 0.00 0.00 0.00 21 1016.4
20260503172516 24 55 4.8 9.7 0.00 0.00 0.00 23 1016.5
20260503171545 23 349 4.8 16.1 0.00 0.00 0.00 23 1016.6
20260503170516 23 32 4.8 9.7 0.00 0.00 0.00 23 1016.6
20260503150518 18 43 3.2 11.3 0.00 0.00 0.00 33 1017.1
20260503130528 7 37 3.2 8.0 0.00 0.00 0.00 55 1017.2
20260503110518 5 285 3.2 9.7 0.00 0.00 0.00 61 1016.3